QPF
0.00 0.00 0.00 0.00 0.00 0.00 0.01 0.00 0.00 0.00 0.00 0.00 0.00 0.00 0.00 0.00 0.00 0.00 0.00 0.00 0.00 0.00 0.00 0.00 0.00 0.00 0.00 0.01 0.01 0.00 0.00 0.00 0.00
0.00 0.00 0.00 0.00 0.00 0.01 0.00 0.00 0.00 0.00 0.00 0.00 0.00 0.00 0.00 0.00 0.00 0.00 0.00 0.00 0.00 0.01 0.00 0.00 0.00 0.00 0.00 0.00 0.01 0.00 0.00 0.00 0.00
0.00 0.00 0.00 0.00 0.00 0.01 0.00 0.00 0.00 0.00 0.00 0.00 0.00 0.00 0.00 0.00 0.00 0.00 0.00 0.00 0.01 0.00 0.00 0.00 0.00 0.00 0.00 0.00 0.00 0.00 0.00 0.00 0.00
0.00 0.00 0.00 0.00 0.00 0.00 0.00 0.00 0.00 0.00 0.00 0.00 0.00 0.00 0.00 0.00 0.00 0.00 0.00 0.00 0.00 0.00 0.00 0.00 0.00 0.00 0.00 0.00 0.00 0.00 0.00 0.00 0.00
0.00 0.00 0.00 0.00 0.00 0.00 0.00 0.00 0.00 0.00 0.00 0.00 0.00 0.00 0.00 0.00 0.00 0.00 0.00 0.00 0.00 0.00 0.00 0.00 0.00 0.00 0.00 0.00 0.00 0.00 0.00 0.00 0.00
0.01 0.00 0.00 0.00 0.00 0.00 0.00 0.00 0.00 0.00 0.00 0.00 0.00 0.00 0.00 0.00 0.00 0.00 0.00 0.00 0.00 0.00 0.00 0.00 0.00 0.00 0.00 0.00 0.00 0.00 0.00 0.00 0.00
0.02 0.00 0.00 0.00 0.00 0.00 0.00 0.00 0.00 0.00 0.00 0.00 0.00 0.00 0.00 0.00 0.00 0.00 0.00 0.00 0.00 0.00 0.00 0.00 0.00 0.00 0.00 0.00 0.00 0.00 0.00 0.00 0.00
0.04 0.01 0.01 0.00 0.00 0.00 0.00 0.00 0.00 0.00 0.00 0.00 0.00 0.00 0.00 0.00 0.00 0.00 0.00 0.00 0.00 0.00 0.00 0.00 0.00 0.00 0.00 0.00 0.00 0.00 0.00 0.00 0.00
0.01 0.01 0.01 0.00 0.00 0.00 0.00 0.00 0.00 0.00 0.00 0.00 0.00 0.00 0.00 0.00 0.00 0.00 0.00 0.00 0.00 0.00 0.00 0.00 0.00 0.00 0.00 0.00 0.00 0.00 0.00 0.00 0.00
0.00 0.00 0.00 0.00 0.00 0.00 0.00 0.00 0.00 0.00 0.00 0.00 0.00 0.00 0.00 0.00 0.00 0.00 0.00 0.00 0.00 0.00 0.00 0.00 0.00 0.00 0.00 0.00 0.00 0.00 0.00 0.00 0.00
0.01 0.00 0.00 0.00 0.00 0.00 0.00 0.00 0.00 0.00 0.00 0.00 0.00 0.00 0.00 0.00 0.00 0.00 0.00 0.00 0.00 0.00 0.00 0.00 0.00 0.00 0.00 0.00 0.00 0.00 0.00 0.00 0.00
0.03 0.01 0.00 0.00 0.00 0.00 0.00 0.00 0.00 0.00 0.00 0.00 0.00 0.00 0.00 0.00 0.00 0.00 0.00 0.00 0.00 0.00 0.00 0.00 0.00 0.00 0.00 0.00 0.00 0.00 0.00 0.00 0.00
0.05 0.03 0.01 0.00 0.00 0.00 0.00 0.00 0.00 0.00 0.00 0.00 0.00 0.00 0.00 0.00 0.00 0.00 0.00 0.00 0.00 0.00 0.00 0.00 0.00 0.00 0.00 0.00 0.00 0.00 0.00 0.00 0.00
0.03 0.03 0.03 0.03 0.01 0.00 0.00 0.00 0.00 0.00 0.00 0.00 0.00 0.00 0.00 0.00 0.00 0.00 0.00 0.00 0.00 0.00 0.00 0.00 0.00 0.00 0.00 0.00 0.00 0.00 0.01 0.01 0.00
0.09 0.05 0.05 0.06 0.02 0.00 0.00 0.00 0.00 0.00 0.00 0.00 0.00 0.00 0.00 0.00 0.00 0.00 0.00 0.00 0.00 0.00 0.00 0.00 0.00 0.00 0.00 0.00 0.00 0.01 0.04 0.08 0.06
0.08 0.07 0.05 0.04 0.03 0.01 0.00 0.00 0.00 0.00 0.00 0.00 0.00 0.00 0.00 0.00 0.00 0.00 0.00 0.00 0.00 0.00 0.00 0.00 0.00 0.00 0.00 0.00 0.00 0.00 0.01 0.06 0.06
0.07 0.04 0.02 0.02 0.02 0.01 0.00 0.00 0.00 0.00 0.00 0.00 0.00 0.00 0.00 0.00 0.00 0.00 0.00 0.00 0.00 0.00 0.00 0.00 0.00 0.00 0.00 0.00 0.00 0.00 0.00 0.00 0.01
0.05 0.03 0.01 0.00 0.02 0.01 0.00 0.00 0.00 0.00 0.00 0.00 0.00 0.00 0.00 0.00 0.00 0.00 0.00 0.00 0.00 0.00 0.00 0.00 0.00 0.00 0.00 0.00 0.00 0.00 0.00 0.00 0.01
0.01 0.03 0.03 0.00 0.01 0.03 0.02 0.00 0.00 0.00 0.00 0.00 0.00 0.00 0.00 0.00 0.00 0.00 0.00 0.00 0.00 0.00 0.00 0.00 0.00 0.00 0.00 0.00 0.00 0.00 0.00 0.00 0.00
0.00 0.00 0.03 0.01 0.00 0.01 0.02 0.01 0.00 0.00 0.00 0.00 0.00 0.00 0.00 0.00 0.00 0.00 0.00 0.00 0.00 0.00 0.00 0.00 0.00 0.00 0.00 0.00 0.00 0.00 0.00 0.00 0.00
MSLP
1016.78 1017.01 1017.15 1017.49 1017.94 1018.16 1018.38 1018.56 1019.08 1019.34 1019.53 1019.68 1019.87 1020.25 1020.53 1020.69 1020.88 1020.89 1020.81 1021.01 1021.11 1021.10 1021.19 1021.28 1021.41 1021.51 1021.59 1021.63 1021.60 1021.68 1021.60 1021.53 1021.52
1016.92 1017.20 1017.41 1017.64 1018.07 1018.49 1018.58 1018.79 1019.11 1019.52 1019.79 1019.98 1020.25 1020.51 1020.76 1020.98 1021.16 1021.24 1021.20 1021.16 1021.31 1021.43 1021.54 1021.66 1021.68 1021.71 1021.91 1021.86 1021.95 1022.03 1022.01 1021.92 1021.82
1016.86 1017.23 1017.59 1017.79 1018.11 1018.64 1019.00 1019.11 1019.20 1019.50 1019.95 1020.28 1020.54 1020.80 1021.02 1021.24 1021.53 1021.36 1021.36 1021.45 1021.61 1021.76 1021.93 1021.99 1022.01 1022.08 1022.12 1022.21 1022.28 1022.34 1022.20 1022.26 1022.20
1016.79 1017.16 1017.51 1017.92 1018.13 1018.55 1019.11 1019.41 1019.52 1019.59 1020.01 1020.44 1020.76 1021.07 1021.25 1021.46 1021.69 1021.47 1021.47 1021.63 1021.76 1022.02 1022.15 1022.23 1022.29 1022.34 1022.44 1022.43 1022.54 1022.55 1022.53 1022.44 1022.49
1016.86 1017.12 1017.42 1017.80 1018.20 1018.59 1018.93 1019.57 1019.73 1019.93 1020.15 1020.59 1020.93 1021.22 1021.50 1021.70 1021.93 1021.89 1021.74 1021.73 1021.89 1022.15 1022.28 1022.38 1022.53 1022.68 1022.77 1022.77 1022.82 1022.89 1022.92 1022.83 1022.82
1017.08 1017.27 1017.44 1017.73 1018.15 1018.53 1018.98 1019.33 1020.02 1020.15 1020.42 1020.65 1021.07 1021.43 1021.77 1021.91 1022.15 1022.07 1021.91 1021.88 1022.00 1022.24 1022.52 1022.68 1022.78 1022.89 1023.01 1023.11 1023.13 1023.18 1023.18 1023.20 1023.23
1016.93 1017.54 1017.75 1017.84 1018.13 1018.55 1018.92 1019.28 1019.82 1020.47 1020.71 1020.96 1021.16 1021.64 1021.98 1022.03 1022.19 1022.21 1022.05 1022.02 1022.18 1022.44 1022.72 1022.89 1023.02 1023.17 1023.28 1023.36 1023.40 1023.42 1023.47 1023.52 1023.50
1016.99 1017.57 1018.11 1018.38 1018.41 1018.65 1019.09 1019.48 1019.97 1020.49 1020.91 1021.17 1021.39 1021.65 1021.96 1022.20 1022.26 1022.30 1022.21 1022.23 1022.29 1022.50 1022.81 1023.11 1023.19 1023.30 1023.43 1023.58 1023.64 1023.68 1023.68 1023.70 1023.73
1016.79 1017.27 1017.67 1018.34 1018.75 1018.92 1019.21 1019.68 1020.09 1020.47 1020.95 1021.26 1021.51 1021.73 1021.97 1022.15 1022.31 1022.40 1022.39 1022.38 1022.46 1022.66 1022.88 1023.09 1023.33 1023.36 1023.45 1023.56 1023.71 1023.76 1023.78 1023.86 1023.83
1016.27 1016.82 1017.22 1017.68 1018.30 1018.93 1019.33 1019.78 1020.14 1020.47 1020.97 1021.45 1021.62 1021.82 1021.94 1022.21 1022.29 1022.35 1022.38 1022.57 1022.66 1022.77 1022.86 1023.01 1023.19 1023.32 1023.45 1023.57 1023.67 1023.71 1023.90 1023.93 1023.91
1015.64 1016.15 1016.65 1017.15 1017.67 1018.49 1019.18 1019.66 1020.06 1020.42 1020.72 1021.38 1021.66 1021.81 1021.98 1022.15 1022.39 1022.39 1022.43 1022.51 1022.67 1022.84 1022.84 1022.96 1023.08 1023.28 1023.43 1023.53 1023.67 1023.78 1023.87 1023.95 1023.94
1015.07 1015.48 1016.20 1016.83 1017.37 1017.88 1019.03 1019.58 1020.15 1020.60 1020.83 1021.13 1021.58 1021.91 1022.01 1022.08 1022.27 1022.44 1022.51 1022.61 1022.64 1022.83 1022.89 1022.91 1022.99 1023.19 1023.26 1023.37 1023.49 1023.61 1023.66 1023.69 1023.66
1014.45 1015.10 1015.38 1016.53 1016.99 1017.70 1018.48 1019.34 1019.83 1020.58 1020.89 1021.03 1021.35 1021.71 1022.04 1022.17 1022.29 1022.39 1022.47 1022.68 1022.70 1022.75 1022.87 1022.94 1022.93 1023.05 1023.13 1023.13 1023.19 1023.09 1023.11 1023.21 1023.26
1014.14 1014.43 1014.92 1016.12 1016.51 1017.49 1018.13 1019.21 1019.25 1020.06 1020.90 1021.06 1021.20 1021.54 1021.95 1022.02 1022.14 1022.32 1022.40 1022.51 1022.60 1022.67 1022.77 1022.94 1022.98 1022.96 1023.00 1022.94 1022.78 1022.65 1022.65 1022.79 1022.82
1013.43 1013.76 1014.47 1015.23 1016.13 1016.86 1017.88 1018.66 1019.07 1019.58 1020.40 1021.09 1021.27 1021.50 1021.69 1021.94 1022.10 1022.10 1022.12 1022.26 1022.39 1022.51 1022.66 1022.73 1022.79 1022.73 1022.75 1022.76 1022.63 1022.47 1022.42 1022.48 1022.52
1012.96 1013.10 1013.66 1014.28 1015.46 1016.11 1016.94 1018.08 1018.72 1019.41 1020.08 1021.22 1021.72 1021.69 1021.67 1021.91 1021.93 1021.91 1021.98 1022.02 1022.04 1022.22 1022.37 1022.41 1022.52 1022.54 1022.51 1022.56 1022.51 1022.40 1022.31 1022.27 1022.20
1012.26 1012.61 1013.05 1013.74 1014.77 1015.60 1016.51 1016.99 1018.12 1018.82 1019.46 1020.39 1021.34 1021.91 1021.88 1021.62 1021.45 1021.59 1021.76 1021.67 1021.75 1021.91 1021.93 1022.05 1022.15 1022.25 1022.34 1022.40 1022.40 1022.37 1022.23 1022.18 1021.99
1012.26 1011.67 1011.91 1012.96 1013.88 1014.80 1015.50 1016.20 1017.03 1017.84 1018.91 1019.03 1019.85 1021.14 1021.27 1021.23 1021.09 1021.16 1021.27 1021.42 1021.57 1021.65 1021.68 1021.73 1021.80 1021.98 1022.17 1022.22 1022.17 1022.07 1021.89 1021.83 1021.83
1011.94 1011.90 1011.33 1012.16 1013.00 1014.01 1014.73 1015.50 1016.08 1016.75 1017.92 1018.83 1018.92 1019.11 1019.64 1020.46 1021.12 1020.95 1020.91 1021.06 1021.30 1021.49 1021.63 1021.73 1021.81 1021.90 1021.93 1021.96 1022.10 1021.95 1021.86 1021.83 1021.73
1011.44 1011.64 1011.94 1011.97 1012.51 1013.24 1013.96 1014.92 1015.34 1015.87 1016.58 1017.20 1018.23 1018.78 1019.34 1019.49 1020.05 1020.74 1020.87 1021.08 1021.10 1021.27 1021.49 1021.65 1021.71 1021.83 1021.88 1021.96 1022.03 1021.97 1021.96 1021.96 1021.91
Thickness
5732 5733 5733 5732 5729 5728 5726 5726 5724 5723 5723 5722 5720 5717 5715 5714 5713 5711 5710 5709 5708 5709 5708 5707 5705 5703 5701 5699 5697 5695 5693 5690 5688
5728 5728 5728 5728 5727 5723 5723 5722 5721 5720 5719 5718 5716 5715 5713 5712 5710 5708 5707 5706 5705 5704 5704 5703 5702 5701 5698 5696 5694 5691 5689 5687 5685
5725 5725 5724 5724 5725 5721 5717 5717 5718 5718 5716 5714 5713 5712 5710 5709 5707 5707 5705 5703 5701 5700 5699 5698 5698 5697 5695 5693 5690 5688 5686 5683 5681
5723 5722 5722 5721 5722 5720 5716 5713 5714 5715 5713 5711 5710 5708 5707 5707 5704 5705 5703 5701 5699 5697 5696 5695 5694 5693 5691 5690 5687 5685 5683 5680 5678
5720 5720 5719 5718 5719 5718 5716 5710 5710 5710 5709 5708 5707 5706 5704 5703 5701 5701 5700 5698 5697 5694 5693 5692 5690 5689 5687 5686 5683 5681 5678 5677 5674
5715 5715 5716 5716 5716 5716 5714 5711 5705 5706 5705 5704 5703 5702 5700 5700 5698 5698 5697 5696 5694 5692 5689 5688 5687 5686 5684 5681 5679 5677 5675 5672 5669
5711 5709 5710 5711 5712 5713 5711 5709 5705 5702 5702 5701 5700 5699 5697 5696 5695 5694 5694 5693 5691 5689 5687 5685 5684 5681 5680 5678 5676 5673 5670 5667 5665
5707 5704 5704 5704 5705 5706 5706 5705 5704 5702 5699 5698 5697 5696 5695 5693 5692 5690 5690 5689 5689 5687 5684 5681 5680 5679 5676 5674 5671 5669 5667 5664 5661
5704 5703 5703 5700 5699 5700 5702 5701 5699 5699 5697 5695 5694 5694 5692 5692 5690 5688 5686 5686 5686 5684 5683 5680 5677 5676 5674 5672 5669 5666 5663 5660 5658
5702 5701 5701 5700 5698 5696 5696 5696 5694 5694 5693 5691 5690 5690 5690 5688 5689 5687 5685 5682 5682 5681 5680 5678 5676 5674 5671 5669 5666 5663 5659 5656 5654
5700 5699 5699 5698 5696 5694 5691 5691 5690 5690 5690 5688 5686 5686 5686 5686 5684 5684 5683 5682 5679 5677 5677 5676 5674 5671 5668 5666 5663 5659 5656 5652 5650
5695 5695 5695 5692 5691 5693 5687 5687 5684 5683 5684 5684 5682 5680 5681 5682 5682 5681 5681 5679 5678 5675 5673 5672 5671 5668 5666 5663 5660 5657 5654 5651 5649
5693 5689 5697 5686 5687 5686 5683 5682 5682 5677 5678 5680 5679 5677 5676 5677 5677 5678 5678 5675 5675 5674 5671 5669 5667 5664 5662 5660 5657 5656 5655 5652 5649
5687 5689 5688 5681 5682 5678 5678 5674 5680 5676 5670 5673 5675 5674 5672 5673 5674 5674 5674 5673 5672 5671 5670 5666 5664 5662 5660 5657 5656 5655 5653 5650 5648
5684 5686 5684 5682 5676 5673 5670 5669 5672 5674 5666 5665 5669 5670 5670 5669 5670 5671 5671 5670 5668 5667 5667 5665 5663 5660 5658 5655 5654 5653 5650 5647 5644
5679 5683 5682 5681 5672 5670 5669 5664 5666 5666 5663 5656 5658 5663 5665 5665 5667 5667 5667 5667 5666 5665 5664 5663 5660 5658 5655 5653 5651 5649 5647 5644 5643
5675 5679 5679 5676 5669 5667 5664 5666 5660 5661 5662 5657 5651 5651 5658 5662 5664 5664 5663 5664 5664 5662 5661 5660 5657 5655 5653 5651 5649 5646 5643 5641 5640
5664 5673 5679 5671 5668 5666 5663 5665 5662 5661 5659 5662 5655 5647 5653 5655 5660 5661 5661 5660 5660 5658 5658 5656 5654 5651 5648 5647 5645 5643 5642 5639 5636
5654 5660 5673 5671 5668 5664 5664 5663 5664 5661 5656 5654 5659 5662 5661 5654 5653 5657 5657 5656 5655 5653 5652 5650 5648 5645 5644 5643 5640 5638 5636 5633 5630
5644 5648 5654 5662 5661 5659 5660 5658 5659 5660 5659 5662 5655 5656 5653 5655 5654 5650 5650 5649 5649 5648 5646 5644 5642 5640 5639 5638 5635 5632 5629 5626 5623